sat.trackr.live / text

‹ back to catalog

STARLINK-2583

NORAD 48439 · 2021-040M

PAYLOAD ACTIVE UNKNOWN

§ Identity

Operator
Country
US
Launch date
2021-05-09
Launch site
AFETR
Launch vehicle
Mass (kg)
RCS (m²)

Purposes: comms

External: N2YO · Heavens-Above · Gunter

§ Orbital elements

Epoch: 2026-05-25T03:02:50.267616Z

Period
94.01 min
Inclination
53.1584°
Eccentricity
0.0001226
Mean motion
15.31702351 rev/d
Perigee alt
469.9 km
Apogee alt
471.6 km
Semi-major
6,848.9 km
B*
-1.9216e-5
RAAN
182.8763°
Arg perigee
89.0327°
Mean anomaly
271.0815°
Rev number
27,838

§ Raw data

STARLINK-25831 48439U 21040M   26145.12697069 -.00000961  00000+0 -19216-4 0  99932 48439  53.1584 182.8763 0001226  89.0327 271.0815 15.31702351278381

JSON: /api/v1/satellites/48439 · /tle

For live sub-satellite position, see the globe view (requires WebGL).

§ Visibility from observer

Set your observer location to see the next 7 days of passes ≥ 10°. The values pass through the URL so the page stays shareable.

No JS? Fill the form by hand. The geolocation button needs JavaScript.